Volver al catálogo

SES 3

ActivoComunicacionesGEO
NORAD 37748·PAYLOAD·🇺🇸 United States

Lanzado Jul 15, 2011 desde Baikonur Cosmodrome

Loading…

TLE

ActualizadoSource: CelesTrak SupGP

Época: Sep 14, 2026, 23:44 UTC

1 37748C 11035A   26257.98958333 -.00000012  00000+0  00000+0 0  2578
2 37748   1.5525  81.9403 0002332 100.7312  64.5513  1.00271872    11

Sigue SES 3 en tiempo real con AllMySat

Download on the App Store